Location: S�tio Afonso Gruber
(26.1760°S, 49.5250°W)
Time: 01:53:52
(UTC+00:00)

FO-29 - Visible Passes

Search period start: 10 December 2022 00:00
Search period end: 20 December 2022 00:00
Orbit: 800 x 1321 km, 98.5° (Epoch: 09 December)

Date Brightness Start Highest point End Pass type
(mag) Time Alt. Az. Time Alt. Az. Time Alt. Az.
10 Dec 12.2 07:25:57 10° ENE 07:29:07 16° ESE 07:32:24 10° SSE visible
11 Dec 13.4 23:03:14 10° SW 23:05:07 11° WSW 23:07:03 10° W visible
12 Dec 12.3 07:21:07 10° E 07:24:02 15° ESE 07:27:03 10° SSE visible
13 Dec 13.3 22:57:22 10° SW 23:00:11 12° WSW 23:03:03 10° W visible
14 Dec 12.4 07:16:21 10° E 07:18:57 14° ESE 07:21:40 10° SE visible
15 Dec 13.2 22:51:46 10° SW 22:55:15 14° WSW 22:58:48 10° W visible
16 Dec 12.5 07:11:37 10° E 07:13:53 13° ESE 07:16:14 10° SE visible
17 Dec 13.1 22:46:19 10° SSW 22:50:19 15° WSW 22:54:24 10° W visible
18 Dec 12.6 07:06:59 10° E 07:08:50 12° ESE 07:10:44 10° SE visible
19 Dec 11.1 07:53:15 10° NE 07:58:10 37° ESE 08:03:31 10° S visible
19 Dec 13.0 22:40:56 10° SSW 22:45:24 17° WSW 22:49:55 10° W visible
